Location: Eymir
(36.7333°N, 29.7833°E)
Time: 23:15:42
(UTC+00:00)

Nadezhda 3 Rocket - Visible Passes

Search period start: 18 April 2026 00:00
Search period end: 28 April 2026 00:00
Orbit: 955 x 999 km, 82.9° (Epoch: 18 April)

Date Brightness Start Highest point End Pass type
(mag) Time Alt. Az. Time Alt. Az. Time Alt. Az.
18 Apr 5.1 17:46:53 10° NNW 17:52:40 45° W 17:58:27 10° SSW visible
19 Apr 6.2 18:13:26 10° NW 18:18:09 24° W 18:22:52 10° SW visible
20 Apr 6.9 18:41:31 10° WNW 18:43:28 12° W 18:45:25 10° W visible
21 Apr 4.9 17:18:44 10° NNW 17:24:40 52° W 17:30:36 10° SSW visible
22 Apr 6.1 17:45:08 10° NNW 17:50:11 27° W 17:55:15 10° SW visible
23 Apr 6.8 18:12:36 10° NW 18:15:33 14° W 18:18:29 10° WSW visible
25 Apr 6.0 17:16:54 10° NNW 17:22:13 32° W 17:27:33 10° SSW visible
26 Apr 6.8 17:43:59 10° NW 17:47:37 16° W 17:51:15 10° WSW visible
